User: anonymous   Login
Location: Unspecified
(0.0000°N, 0.0000°E)
Time: 10:34:58
(UTC+00:00)
Language:

DNEPR OBJECT U - Orbit

View from above orbital plane
View from above orbital plane
View from above satellite
View from above satellite

Ground track
Ground track

The orbit data is extracted from the following two-line orbital elements,

1 39434U 13066U   21016.71329872  .00001337  00000-0  92699-4 0  9991
2 39434  97.5296  90.9055 0031421  33.4665 326.8539 15.06916292373155
Epoch (UTC): 16 January 2021 17:07:09
Eccentricity: 0.0031421
inclination: 97.5296°
perigee height: 524 km
apogee height: 567 km
right ascension of ascending node: 90.9055°
argument of perigee: 33.4665°
revolutions per day: 15.06916292
mean anomaly at epoch: 326.8539°
orbit number at epoch: 37315

The dashed part of the orbit path shows where the satellite is in the earth's shadow,  

DLR